SKYSAT-C7 (42991 NORAD) Tracking and Keplerian Element Data

This shows tracking and keplerian element data for the satellite.

Feedback or suggestion? Click here.




ElementValue
Catalog42991
NameSKYSAT-C7
Epoch Orbit5833
Epoch Day323.77021116
Epoch Year2018
RAAN75.514
Inclination97.4168
Eccentricity0.0005115
Argument of Perigee316.8359
Mean Anonmoly170.7489
Mean Motion15.2158015
Decay Rate7.09E-06
L11 42991U 17068E 18323.77021116 .00000709 00000-0 34490-4 0 9999
L22 42991 97.4168 75.5140 0005115 316.8359 170.7489 15.21580150 58334

Live tracking and technical data element details for SKYSAT-C7 (NORAD 42991). SKYSAT-C7 can be tracked NOW for your location showing map with azimuth and elevation plus other details from your city location.

Track the satellite on the map from your city or location and see movement details for azimuth, elevation, latitude, longitude, range, height, and movement on the map or in text.







IsCatalogInMostPopularTable: catalog: 42991, numindb: 141
Update: records affected: 1



GetName: 42991 SKYSAT-C7

Hit Count: updated at: Wed, 21 Nov 2018 05:45:52 GMT